Location: Stonelick Lake State Park
(39.2170°N, 84.0850°W)
Time: 01:25:54
(UTC-04:00)

Daily predictions for brighter satellites

Satellite Brightness Start Highest point End
(mag) Time Altitude Azimuth Time Altitude Azimuth Time Altitude Azimuth
SL-16 R/B 4.2 03:33:25 28° NNE 03:33:25 28° NNE 03:36:24 10° N
Cosmos 2322 Rocket 3.9 03:58:57 27° NNE 03:58:57 27° NNE 04:01:26 10° NNE
SL-16 R/B 3.8 04:04:10 30° NNE 04:04:10 30° NNE 04:06:54 10° NNE
Resurs 1-4 Rocket 3.9 04:05:56 10° NNE 04:08:11 26° NNE 04:08:11 26° NNE
CZ-2D R/B 3.7 04:08:04 10° NNE 04:10:47 31° NNE 04:10:47 31° NNE
Okean O Rocket 4.3 04:14:05 10° ENE 04:16:18 14° E 04:16:33 13° E
FALCON 9 R/B 4.2 04:17:39 63° SW 04:19:47 70° S 04:59:42 10° ESE
Cosmos 2360 Rocket 3.0 04:27:51 47° ENE 04:27:51 47° ENE 04:32:05 10° NNE
Cosmos 1980 Rocket 4.4 04:30:15 16° NNW 04:30:15 16° NNW 04:31:56 10° N
ADEOS II 4.2 04:31:00 10° NE 04:34:58 21° E 04:37:45 15° SE
ADEOS Rocket 3.6 04:33:34 10° N 04:37:11 42° N 04:37:11 42° N
CENTAUR R/B 3.8 04:43:40 29° NNW 04:43:40 29° NNW 04:49:09 10° NNE
USA 215 4.1 04:42:57 10° ESE 04:49:10 48° NE 04:55:24 10° NW
SL-08 ROCKET BODY 4.4 04:43:58 10° N 04:49:21 74° NNE 04:49:21 74° NNE
Cosmos 2333 Rocket 4.4 04:53:58 10° SSE 04:58:07 21° E 05:02:17 10° NE
Cosmos 2322 3.6 05:04:46 74° NW 05:04:46 74° NW 05:10:16 10° NNE
CZ-4B R/B 4.1 05:05:16 10° NNE 05:08:01 37° ENE 05:08:01 37° ENE
Cosmos 2327 Rocket 4.3 05:05:16 10° N 05:11:35 84° W 05:13:53 42° S
Meteor 1-18 Rocket 4.1 05:12:25 72° WNW 05:12:25 72° WNW 05:17:54 10° N
SL-16 R/B 4.5 05:18:29 13° NW 05:18:29 13° NW 05:19:22 10° NW
ARIANE 5 R/B 4.3 05:12:22 10° NNW 05:14:22 19° NNW 05:14:22 19° NNW
Nadezhda 1 Rocket 3.8 05:16:39 47° S 05:18:32 87° W 05:24:39 10° N
Meteor 1-12 Rocket 4.1 05:13:50 10° N 05:19:31 83° W 05:22:22 31° S
Meteor 2-13 Rocket 4.3 05:16:02 10° N 05:22:14 84° W 05:27:43 13° S
Cosmos 2333 4.3 05:21:51 41° S 05:23:49 72° ESE 05:29:29 10° NNE
Cosmos 1570 Rocket 3.9 05:24:17 62° SSW 05:25:11 88° WNW 05:30:26 10° NNE
Tiangong 2 2.4 05:34:36 39° E 05:34:36 39° E 05:36:43 10° ESE
CZ-4B DEB 4.3 05:28:10 10° NNE 05:33:44 74° ESE 05:37:41 20° S
MOS 1 Rocket 3.5 05:29:24 10° N 05:33:35 50° NW 05:33:35 50° NW
CZ-4B R/B 3.3 05:28:40 10° NNE 05:34:19 75° ESE 05:38:17 20° S
Cosmos 2074 Rocket 4.1 05:28:27 10° NNW 05:34:27 50° W 05:35:49 43° SW
Cosmos 2341 Rocket 4.3 05:34:14 10° N 05:40:28 67° E 05:46:37 10° SSE
Cosmos 2322 Rocket 4.1 05:40:45 14° NW 05:40:45 14° NW 05:43:34 10° NNW
Cosmos 1238 Rocket 2.9 05:42:00 47° NNE 05:42:00 47° NNE 05:44:14 10° N
IRS-1C Rocket 4.0 05:38:00 10° NNE 05:43:17 85° WNW 05:46:22 26° SSW
ERS-2 3.7 05:41:28 10° NNE 05:44:53 34° E 05:48:16 10° SSE
SL-16 R/B 4.1 05:46:02 14° NW 05:46:09 14° NW 05:48:55 10° NNW
IRAS Rocket 4.2 05:42:00 10° NNE 05:47:35 88° ESE 05:52:15 15° SSW
Resurs 1-4 Rocket 4.2 05:48:21 10° NW 05:49:17 11° NW 05:49:17 11° NW
CZ-2C R/B 3.6 05:46:47 10° SSE 05:51:24 88° WSW 05:55:56 10° NNW
Cosmos 2219 Rocket 2.2 05:48:29 20° SSW 05:52:27 80° ESE 05:58:03 10° NNE
CZ-2D R/B 4.2 05:50:38 10° NW 05:52:08 12° NW 05:52:08 12° NW
Okean O Rocket 1.8 05:48:38 10° N 05:52:57 52° WNW 05:54:01 41° WSW
COSMOS 2428 2.8 05:51:56 34° SW 05:54:12 57° WNW 05:59:48 10° NNE
Cosmos 1025 Rocket 3.7 05:53:24 10° S 05:57:40 56° E 06:01:59 10° NNE
NOSS 0 Rocket 4.3 05:53:39 10° S 05:59:44 65° ESE 06:05:50 10° NNE
Cosmos 1844 Rocket 2.5 05:55:24 10° NNW 06:00:59 77° WSW 06:06:31 10° SSE
Lacrosse 4 Rocket 2.7 06:03:25 23° SSW 06:03:25 23° SSW 06:05:28 10° S
DELTA 2 R/B (1) 3.5 06:02:43 29° W 06:05:38 90° N 06:11:12 10° E
Okean-O 3.2 06:02:21 10° NNE 06:06:44 58° E 06:11:05 10° S
Cosmos 2360 Rocket 3.6 06:09:38 19° WNW 06:10:57 20° NW 06:15:03 10° N
USA 116 4.2 06:07:41 10° SSE 06:11:52 77° ENE 06:16:38 10° N
Cosmos 2285 Rocket 4.0 06:05:28 10° SSW 06:11:53 89° ESE 06:18:23 10° NNE
ADEOS II 2.4 06:09:53 10° N 06:14:52 44° WNW 06:18:42 16° SW
Meteor 1-19 Rocket 4.3 06:10:55 11° SSW 06:16:19 55° WNW 06:21:57 10° N
Cosmos 2278 Rocket 2.8 06:10:57 10° NNW 06:16:34 60° ENE 06:22:09 10° SE
Cosmos 2298 Rocket 4.2 06:12:02 10° NNW 06:17:24 80° ENE 06:22:43 10° SSE
Cosmos 1814 Rocket 4.1 06:13:39 10° SSW 06:18:50 80° ESE 06:24:01 10° NNE
Gblst 52 Del rocket 4.4 06:14:40 10° WNW 06:20:18 58° SW 06:26:40 10° SSE
Cosmos 2237 Rocket 2.3 06:14:42 10° SSW 06:20:22 79° ESE 06:26:05 10° NNE
Cosmos 1295 Rocket 4.4 06:16:48 10° NNW 06:23:00 70° W 06:29:05 10° S
Aureole 2 Rocket 2.4 06:20:18 10° SSW 06:24:00 86° ESE 06:27:23 10° NNE
Meteor 2-19 Rocket 4.4 06:19:45 10° NNW 06:25:46 64° W 06:31:44 10° S
Meteor 2-4 Rocket 3.7 06:21:15 10° SSW 06:26:47 62° W 06:32:12 10° N
Meteor 1-15 Rocket 4.5 06:21:11 10° N 06:27:09 80° E 06:33:04 10° SSE
Cosmos 405 Rocket 2.7 06:23:51 10° S 06:27:55 85° W 06:31:58 10° N
Cosmos 371 Rocket 4.3 06:23:20 10° S 06:27:59 48° ESE 06:32:40 10° NNE
Cosmos 1666 3.0 06:25:58 10° NNW 06:29:39 42° W 06:33:19 10° SSW
ATLAS 5 CENTAUR R/B 2.6 06:23:58 10° NNW 06:30:02 78° NE 06:36:37 10° SE
Cosmos 332 Rocket 4.1 06:26:45 10° S 06:31:38 72° ESE 06:36:31 10° NNE
Okean 2 3.3 06:27:29 10° S 06:31:38 82° W 06:35:51 10° N
USA 215 3.4 06:25:45 10° SSE 06:32:06 51° SW 06:38:27 10° NW
Cosmos 2366 rocket 4.2 06:28:26 10° N 06:34:49 81° E 06:41:11 10° S
CZ-3A R/B 0.6 06:35:50 21° NNW 06:35:50 21° NNW 06:37:10 10° NNE
Cosmos 1743 4.0 06:34:05 10° NW 06:36:59 20° W 06:39:51 10° SW
Cosmos 2333 Rocket 2.4 06:36:23 10° SW 06:41:55 51° WNW 06:47:31 10° NNE
SKYMED 2 4.1 06:39:26 10° SSE 06:43:43 65° ENE 06:48:02 10° N
CZ-4B R/B 4.3 06:39:43 10° N 06:44:07 52° WNW 06:48:27 10° SSW
USA 229 DEB 4.0 06:38:15 10° SW 06:44:49 51° NW 06:51:36 10° NNE
Cosmos 2058 Rocket 3.5 06:40:26 10° N 06:44:54 68° E 06:49:19 10° SSE
USA 229 4.0 06:38:19 10° SW 06:44:55 52° NW 06:51:42 10° NNE
Cosmos 1867 3.5 06:39:47 10° NW 06:45:13 72° WSW 06:50:37 10° SSE
Meteor 1-31 Rocket 3.2 06:42:49 10° N 06:46:24 40° WNW 06:49:58 10° SW
Feng Yun 1-1 Rocket 4.4 06:43:23 10° N 06:49:08 59° WNW 06:54:43 10° SSW
NOSS 3-1 (A) 3.8 06:51:23 10° SSW 06:57:03 67° ESE 07:03:22 10° NE
OTV 4 2.2 06:57:06 10° SSW 06:59:22 23° SSE 07:01:39 10° ESE
Thor Agena Rocket 3.6 06:54:40 10° S 06:59:36 53° WSW 07:04:33 10° NNW
NOSS 3-1 (C) 3.4 06:53:54 10° SSW 06:59:38 86° WNW 07:06:04 10° NNE
Cosmos 1606 Rocket 3.9 06:58:31 10° NNW 07:02:46 44° W 07:07:01 10° SSW
Cosmos 1437 Rocket 4.0 06:59:28 10° N 07:03:29 50° ENE 07:07:25 10° SSE
Cosmos 990 Rocket 4.0 06:58:37 10° NNW 07:03:42 58° WSW 07:08:43 10° S
Hubble Space Telescope 3.0 07:01:51 10° SSW 07:04:24 16° S 07:06:56 10° SE
Cosmos 2150 Rocket 4.4 06:59:46 10° NNW 07:04:45 43° WSW 07:09:47 10° S
SL-8 Rocket 4.4 06:59:04 10° NNW 07:04:49 42° W 07:10:32 10° SSW
